カタログに戻る

STARLINK-6255

運用中通信VLEO
NORAD 56550·PAYLOAD·🇺🇸 United States

打ち上げ May 14, 2023 から Cape Canaveral Space Force Station

Loading…

次のパス (今後24時間)

TLE

最新Source: CelesTrak SupGP

元期: Sep 14, 2026, 20:50 UTC

1 56550C 23065AZ  26257.86854167  .00031246  00000+0  11316-2 0  2570
2 56550  42.9996 235.4942 0001583 259.5199  12.4760 15.27565590    14

AllMySatでSTARLINK-6255をリアルタイム追跡

Download on the App Store